Location: Unspecified
(0.0000°N, 0.0000°E)
Time: 14:30:04
(UTC+00:00)

deb West Ford - Visible Passes

Search period start: 25 April 2025 00:00
Search period end: 05 May 2025 00:00
Orbit: 3212 x 4024 km, 87.5° (Epoch: 24 April)

Date Brightness Start Highest point End Pass type
(mag) Time Alt. Az. Time Alt. Az. Time Alt. Az.
25 Apr ? 02:03:32 26° NNW 02:03:32 26° NNW 02:08:50 10° NNW visible
26 Apr ? 00:10:13 25° NNE 00:10:13 25° NNE 00:15:30 10° NNE visible
26 Apr ? 02:56:04 14° NW 02:56:04 14° NW 02:57:51 10° NW visible
27 Apr ? 01:02:44 30° N 01:02:44 30° N 01:08:50 10° N visible
27 Apr ? 23:09:24 14° NE 23:09:24 14° NE 23:11:21 10° NE visible
28 Apr ? 01:55:14 24° NNW 01:55:14 24° NNW 02:00:14 10° NNW visible
29 Apr ? 00:01:53 25° NNE 00:01:53 25° NNE 00:07:12 10° NNE visible
29 Apr ? 02:47:43 12° NW 02:47:43 12° NW 02:48:57 10° NW visible
30 Apr ? 00:54:22 30° N 00:54:22 30° N 01:00:24 10° N visible
30 Apr ? 23:01:01 14° NE 23:01:01 14° NE 23:03:20 10° NE visible
01 May ? 01:46:51 23° NNW 01:46:51 23° NNW 01:51:38 10° NNW visible
01 May ? 23:53:29 26° NNE 23:53:29 26° NNE 23:58:56 10° NNE visible
02 May ? 02:39:19 11° NW 02:39:19 11° NW 02:40:03 10° NW visible
03 May ? 00:45:57 30° N 00:45:57 30° N 00:51:59 10° N visible
03 May ? 22:52:34 15° NE 22:52:34 15° NE 22:55:20 10° NE visible
04 May ? 01:38:24 23° NNW 01:38:24 23° NNW 01:43:03 10° NNW visible
04 May ? 23:45:01 27° NNE 23:45:01 27° NNE 23:50:40 10° NNE visible
